{"data":{"norad_id":53784,"intl_designator":"2022-111M","name":"STARLINK-4687","alt_names":[],"object_type":"PAYLOAD","status":"ACTIVE","operator":null,"country":"US","launch_date":"2022-09-11","launch_site_code":"AFETR","launch_vehicle":null,"mission":null,"orbit_class":"UNKNOWN","rcs_meters":null,"size_class":null,"mass_kg":null,"dimensions":null,"purposes":["comms"],"wikipedia_slug":null,"has_3d_model":false,"image_url":null,"decayed_at":null,"tle_current":{"epoch":"2026-05-24T22:03:07.026048Z","epoch_age_seconds":82164,"freshness":"FRESH","line1":"1 53784U 22111M   26144.91883132  .00001439  00000+0  10847-3 0  9995","line2":"2 53784  53.2125 291.9495 0001490  97.7132 262.4029 15.08838611205204","mean_motion":15.08838611,"eccentricity":0.000149,"inclination_deg":53.2125,"raan_deg":291.9495,"arg_perigee_deg":97.7132,"mean_anomaly_deg":262.4029,"bstar":0.00010847,"rev_number":20520,"period_min":95.437642535249,"perigee_km":538.71686977413,"apogee_km":540.77839939524,"semimajor_km":6917.8846345847,"source":"CELESTRAK","updated_at":"2026-05-25T13:38:17.543214Z"}}}